Regional Weather Roundup
Issued by NWS Charleston, SC

Current Version | Previous Version | Text Only | Print | Product List | Glossary Off
Versions: 1 2 3 4 5 6 7 8 9 10 11 12 13 14 15 16 17 18 19 20 21 22 23 24 25 26 27 28 29 30 31 32 33 34 35 36 37 38 39 40 41 42 43 44 45 46 47 48 49 50

068
ASUS42 KCHS 230527
RWRCHS

REGIONAL WEATHER ROUNDUP
NATIONAL WEATHER SERVICE CHARLESTON SC
1200 AM EST MON JAN 23 2017

NOTE: "FAIR" INDICATES FEW OR NO CLOUDS BELOW 12,000 FEET WITH NO
SIGNIFICANT WEATHER AND/OR OBSTRUCTIONS TO VISIBILITY.

NOT ALL STATIONS ARE QUALITY CONTROLLED. USE DATA WITH CAUTION...
ESPECIALLY DEWPOINT OBSERVATIONS.

SCZ027-030-031-034>040-042>050-230600-
...SOUTHEAST SOUTH CAROLINA...

CITY           SKY/WX    TMP DP  RH WIND       PRES   REMARKS
N CHARLESTON   PTCLDY    64  57  78 SW20G33   29.30R
WATERFRONT PRK   N/A     65  64  97 SW14      29.28F
MOUNT PLEASANT MOCLDY    64  63  94 SW15G22   29.30R
JOHNS ISLAND   FAIR      63  54  72 SW16G24   29.32R
PINOPOLIS        N/A     64  64 100 S5        29.19F
MONCKS CORNER  CLOUDY    63  61  94 SW14      29.28S
SUMMERVILLE    MOCLDY    63  63 100 SW10G20   29.30R
BEAUFORT MCAS  CLEAR     59  51  75 W22G30    29.35R
BEAUFORT ARPT  FAIR      57  52  82 W15G23    29.34F
HILTON HEAD IS CLEAR     59  52  77 W13G21    29.36F
WALTERBORO     MOCLDY    57  52  82 W18G28    29.34R
ALLENDALE      FAIR      55  50  82 VRB6G14   29.33S

...SOUTHERN MIDLANDS AND PEE DEE...

CITY           SKY/WX    TMP DP  RH WIND       PRES   REMARKS
GEORGETOWN     MOCLDY    61  59  94 CALM      29.28S FOG
KINGSTREE      CLOUDY    61  59  94 E5        29.26F
ORANGEBURG     LGT RAIN  60  54  80 W29G41    29.29R
BARNWELL       FAIR      57  52  82 SW14G23   29.31S
AIKEN          CLOUDY    52  50  93 SW15G21   29.32S
MANNING        MOCLDY    61  52  72 S7        29.27S
COLUMBIA       CLOUDY    60  58  92 S5        29.23F
SUMTER         LGT RAIN  63  59  88 S10G20    29.22F
FLORENCE       CLOUDY    61  60  97 E16G26    29.29F
MYRTLE BEACH   CLOUDY    63  59  88 E7        29.30F
N MYRTLE BEACH CLOUDY    61  61 100 E7        29.28F

$$

GAZ063-065-086>088-099>101-113>116-118-119-134>141-150-230600-
...SOUTHEAST GEORGIA...

CITY           SKY/WX    TMP DP  RH WIND       PRES   REMARKS
SAVANNAH ARPT  CLEAR     58  50  75 SW13      29.38F
HUNTER AAF     CLEAR     57  55  92 SW10      29.36F
FORT STEWART   PTCLDY    56  50  80 SW6       29.37F
STATESBORO     CLEAR     57  53  87 SW9G17    29.37S
SYLVANIA       CLEAR    N/A N/A N/A W7        29.37S
CLAXTON        FAIR     N/A N/A N/A SW6       29.38R

...CSRA...CENTRAL AND FAR SOUTHEAST GEORGIA...

CITY           SKY/WX    TMP DP  RH WIND       PRES   REMARKS
THOMSON        PTCLDY    55  51  87 W8        29.35S
AUGUSTA-BUSH   CLEAR     57  49  74 SW13G21   29.31R
AUGUSTA-DANIEL CLEAR     56  47  71 SW10      29.31R
SWAINSBORO     FAIR      54  50  87 SW5       29.36F
VIDALIA        CLEAR     54  52  94 SW7       29.38S
EASTMAN        FAIR      55  41  61 SW5       29.38F
HAZLEHURST     FAIR      56  53  88 SW5       29.37F
ALMA           CLOUDY    58  51  78 SW6       29.40F
WAYCROSS       CLOUDY    61  55  81 SW9       29.41R
JESUP          CLOUDY    59  48  67 SW3       29.40S
BAXLEY         FAIR      57  54  88 CALM      29.39F
BRUNSWICK      MOCLDY    59  54  82 SW10G16   29.41F
SAINT SIMONS   CLEAR     59  49  69 SW13G20   29.41F

$$

SCZ027-028-034-036>038-045-046-048>050-GAZ119-141-230600-
...LAKE AND SUPPLEMENTAL COASTAL OBSERVATIONS...

STATION/POSITION TIME  TEMP    WIND        PRES    WAVE   SWELL
                       AIR SEA DIR/SP/G            HT/PER HT/PER/DIR
                 (UTC) (F)     (DEG/KT/KT) (MB)    (FT/S) (FT/S/D)
WINYAH BAY       0445   64     130/  5      991.0F
LAKE MURRAY      0450   59     160/  4/  5  989.8F
ACE BASIN NERRS  0445   61     250/ 10      994.0R
FORT PULASKI     0500   60 59  260/ 10/ 15  994.5
SAPELO ISLAND    0500   60     250/ 12      995.0

$$

ANZ835-935-AMZ111-154-330-350-352-354-370-450-454-472-230600-
...C-MAN AND BUOY OBSERVATIONS...

STATION/POSITION TIME  TEMP    WIND        PRES    WAVE   SWELL
                       AIR SEA DIR/SP/G            HT/PER HT/PER/DIR
                 (UTC) (F)     (DEG/KT/KT) (MB)    (FT/S) (FT/S/D)
BUOY 41004       0450   70 66  230/ 29/ 35  990.9F   6/ 5   3/150/ 8
BUOY 41008       0450   62 60  250/ 17/ 21  994.6F   4/ 6   2/110/ 7
FOLLY BEACH CMAN 0500   62     230/ 14/ 19  993.0R
CAPERS NEARSHORE 0408   63 56  160/  8/ 12  991.5F
FRIPP NEARSHORE  0508   61 58  270/ 19/ 25  993.8R


STATION/POSITION TIME  TEMP    WIND        PRES    WAVE   SWELL
                       AIR SEA DIR/SP/G            HT/PER HT/PER/DIR
                 (UTC) (F)     (DEG/KT/KT) (MB)    (FT/S) (FT/S/D)
5E ST. MARYS GA  0500      63                N/A     4/ 7
FRYING PAN BUOY  0510   69 67  140/ 25/ 35  992.5
BUOY 41025       0450   63 71   20/ 12/ 14  998.8S   4/13   3/ 70/13
CAPE LOOKOUT NC  0500   64      50/ 13/ 16  996.0F
BUOY 41002       0450   70 71  100/ 12/ 17 1000.9F  10/ 9  10/190/ 9
BUOY 41010       NOT AVBL
ST AUGUSTINE FL  0500   62 65  210/  6/  8  998.2F


$$




USA.gov is the U.S. government's official web portal to all federal, state and local government web resources and services.